Hourly Data Report for July 17, 2013

All times are specified in Local Standard Time (LST). Add 1 hour to adjust for Daylight Saving Time where and when it is observed.

VICTORIA INTL A
BRITISH COLUMBIA

48°38'50.000" N
123°25'33.000" W
19.50 m
1018621
71799
YYJ

Download Data

Hourly Data (July 2013)
Hourly Data Report for July 17, 2013
Temp Definition
°C
Dew Point Temp Definition
°C
Rel Hum Definition
%
Wind Dir Definition
10's deg

Wind Spd Definition
km/h
Visibility Definition
km
Stn Press Definition
kPa
Hmdx Definition


Wind Chill Definition


Weather Definition


TIME
00:00 Legend Double Dagger 18.6 11.5 63 16 9 48.3 101.00     LegendNANA
01:00 Legend Double Dagger 18.5 12.1 66 18 4 48.3 101.02     Cloudy
02:00 Legend Double Dagger 20.5 10.2 51 23 17 48.3 100.97     LegendNANA
03:00 Legend Double Dagger 20.4 10.1 51 14 15 48.3 101.09     LegendNANA
04:00 Legend Double Dagger 15.4 11.6 78 13 21 48.3 101.18     Cloudy
05:00 Legend Double Dagger 16.6 11.2 70 5 8 48.3 101.25     LegendNANA
06:00 Legend Double Dagger 16.1 12.1 77 9 7 48.3 101.32     LegendNANA
07:00 Legend Double Dagger 15.2 12.6 84 14 16 48.3 101.39     Mostly Cloudy
08:00 Legend Double Dagger 16.7 11.9 73 14 18 48.3 101.48     LegendNANA
09:00 Legend Double Dagger 19.4 12.3 63 12 10 48.3 101.53     LegendNANA
10:00 Legend Double Dagger 19.8 12.9 64 11 11 48.3 101.57     Mainly Clear
11:00 Legend Double Dagger 19.3 13.1 67 12 21 48.3 101.62     LegendNANA
12:00 Legend Double Dagger 18.3 12.8 70 14 33 48.3 101.66     LegendNANA
13:00 Legend Double Dagger 21.1 13.4 61 14 29 48.3 101.70     Mainly Clear
14:00 Legend Double Dagger 21.2 13.0 59 14 22 48.3 101.72     LegendNANA
15:00 Legend Double Dagger 22.1 13.3 57 10 18 48.3 101.73 25   LegendNANA
16:00 Legend Double Dagger 21.1 13.2 60 11 16 48.3 101.73     Clear
17:00 Legend Double Dagger 21.4 12.9 58 9 16 48.3 101.73     LegendNANA
18:00 Legend Double Dagger 19.7 13.3 66 1 12 48.3 101.76     LegendNANA
19:00 Legend Double Dagger 18.6 12.9 69 2 10 48.3 101.80     Clear
20:00 Legend Double Dagger 16.4 12.4 77 2 9 48.3 101.83     LegendNANA
21:00 Legend Double Dagger 16.9 12.3 74 30 8 48.3 101.89     LegendNANA
22:00 Legend Double Dagger 16.1 12.7 80 33 1 48.3 101.91     Clear
23:00 Legend Double Dagger 16.8 13.0 78 30 17 48.3 101.95     LegendNANA

Notes on Data Quality.

Legend

  • E = Estimated
  • M = Missing
  • NA = Not Available
  • ‡ = Partner data that is not subject to review by the National Climate Archives
Date modified: